📊 Raw Sensor Data

Showing records 37626 to 37650 of 84,916 total

ID Distance (ft) Battery V Battery A Int Temp (°F) Int Humid (%) Ext Temp (°F) Solar V RSSI SNR Time Stamp
47303 15.3 3.91 7 76 43 74 5.10 -72 8 07/25/2025 11:15 AM
47302 15.3 3.91 7 76 42 77 5.10 -72 8 07/25/2025 11:00 AM
47301 15.3 3.91 0 74 42 73 5.10 -71 7 07/25/2025 10:45 AM
47300 15.3 3.91 7 73 42 74 5.10 -70 7 07/25/2025 10:30 AM
47299 15.3 3.91 8 73 42 73 5.10 -71 7 07/25/2025 10:15 AM
47298 15.3 3.91 8 71 42 73 5.10 -70 7 07/25/2025 10:00 AM
47297 15.3 3.91 8 69 43 72 5.10 -70 8 07/25/2025 09:45 AM
47296 15.3 3.91 9 69 43 69 5.10 -69 8 07/25/2025 09:30 AM
47295 15.3 3.92 10 69 43 69 5.10 -72 8 07/25/2025 09:15 AM
47294 15.3 4.20 161 68 43 69 5.10 -72 8 07/25/2025 09:00 AM
47293 15.4 4.20 158 67 43 70 5.10 -70 8 07/25/2025 08:45 AM
47292 15.3 4.12 143 65 43 67 4.50 -71 8 07/25/2025 08:30 AM
47291 15.4 4.05 103 64 43 66 4.50 -69 8 07/25/2025 08:15 AM
47290 15.3 4.20 166 63 43 66 5.10 -71 8 07/25/2025 08:00 AM
47289 15.3 3.95 51 62 43 65 4.50 -70 8 07/25/2025 07:45 AM
47288 15.3 3.87 18 61 43 64 4.50 -70 7 07/25/2025 07:30 AM
47287 15.3 3.84 -11 60 42 62 4.50 -70 8 07/25/2025 07:15 AM
47286 15.3 3.82 5 59 42 62 4.50 -70 8 07/25/2025 07:00 AM
47285 15.2 3.81 0 57 42 61 4.50 -69 8 07/25/2025 06:45 AM
47284 15.1 3.80 -7 54 43 56 4.50 -72 7 07/25/2025 06:15 AM
47283 15.1 3.80 -10 54 43 55 2.00 -71 8 07/25/2025 06:00 AM
47282 15.1 3.80 -5 54 43 56 1.10 -70 8 07/25/2025 05:45 AM
47281 15.1 3.80 -5 54 44 55 0.00 -71 8 07/25/2025 05:30 AM
47280 15.1 3.80 -5 54 44 55 0.00 -71 8 07/25/2025 05:15 AM
47279 15.1 3.85 -5 54 44 55 0.00 -70 8 07/25/2025 05:00 AM